
Distance (Route):
Temperature : 22.4°C
Humidity : 40.0%
Pressure : 0hPa| Receiver | Frames | First received | Last received |
|---|---|---|---|
| LZ4TU-5 | 257 | 2026-09-04 23:18:33 | 2026-09-05 01:16:07 |
| Receiver | Date | Latitude | Longitude | Direction | Speed | Altitude | Climb | Temperature | Humidity | Pressure | Voltage | Killtimer | Uptime | BKT | XDATA |
|---|---|---|---|---|---|---|---|---|---|---|---|---|---|---|---|
| LZ4TU-5 | 2026-09-05 01:16:07 | 43.93467 | 22.82066 | 130° | 20km/h | 881m | -11.4m/s | 22.4°C | 40.0% | 0hPa | 0V | 00:00:00 | 00:00:00 | 00:00:00 | |
| LZ4TU-5 | 2026-09-05 01:16:02 | 43.93483 | 22.82039 | 132° | 20km/h | 942m | -11.6m/s | 21.9°C | 40.9% | 0hPa | 0V | 00:00:00 | 00:00:00 | 00:00:00 | |
| LZ4TU-5 | 2026-09-05 01:15:55 | 43.93506 | 22.82001 | 133° | 20km/h | 1023m | -11.3m/s | 21.1°C | 42.1% | 0hPa | 0V | 00:00:00 | 00:00:00 | 00:00:00 | |
| LZ4TU-5 | 2026-09-05 01:15:50 | 43.93524 | 22.81975 | 133° | 20km/h | 1084m | -11.6m/s | 20.6°C | 43.1% | 0hPa | 0V | 00:00:00 | 00:00:00 | 00:00:00 | |
| LZ4TU-5 | 2026-09-05 01:15:45 | 43.93541 | 22.81949 | 133° | 22km/h | 1145m | -12.1m/s | 20.0°C | 44.1% | 0hPa | 0V | 00:00:00 | 00:00:00 | 00:00:00 | |
| LZ4TU-5 | 2026-09-05 01:15:41 | 43.93555 | 22.81927 | 132° | 22km/h | 1193m | -11.5m/s | 19.6°C | 44.9% | 0hPa | 0V | 00:00:00 | 00:00:00 | 00:00:00 | |
| LZ4TU-5 | 2026-09-05 01:15:36 | 43.93573 | 22.81900 | 132° | 22km/h | 1252m | -11.7m/s | 19.0°C | 46.0% | 0hPa | 0V | 00:00:00 | 00:00:00 | 00:00:00 | |
| LZ4TU-5 | 2026-09-05 01:15:31 | 43.93591 | 22.81872 | 132° | 22km/h | 1312m | -11.5m/s | 18.5°C | 47.2% | 0hPa | 0V | 00:00:00 | 00:00:00 | 00:00:00 | |
| LZ4TU-5 | 2026-09-05 01:15:26 | 43.93610 | 22.81844 | 136° | 22km/h | 1373m | -11.4m/s | 17.9°C | 48.6% | 0hPa | 0V | 00:00:00 | 00:00:00 | 00:00:00 | |
| LZ4TU-5 | 2026-09-05 01:15:22 | 43.93626 | 22.81820 | 136° | 24km/h | 1418m | -11.7m/s | 17.5°C | 49.8% | 0hPa | 0V | 00:00:00 | 00:00:00 | 00:00:00 | |
| LZ4TU-5 | 2026-09-05 01:15:18 | 43.93644 | 22.81796 | 136° | 24km/h | 1453m | -11.1m/s | 17.1°C | 50.8% | 0hPa | 0V | 00:00:00 | 00:00:00 | 00:00:00 | |
| LZ4TU-5 | 2026-09-05 01:15:13 | 43.93667 | 22.81768 | 140° | 24km/h | 1506m | -11.6m/s | 16.6°C | 51.7% | 0hPa | 0V | 00:00:00 | 00:00:00 | 00:00:00 | |
| LZ4TU-5 | 2026-09-05 01:15:09 | 43.93685 | 22.81748 | 140° | 24km/h | 1558m | -12.2m/s | 16.1°C | 52.4% | 0hPa | 0V | 00:00:00 | 00:00:00 | 00:00:00 | |
| LZ4TU-5 | 2026-09-05 01:15:05 | 43.93703 | 22.81728 | 140° | 22km/h | 1611m | -12.1m/s | 15.7°C | 52.8% | 0hPa | 0V | 00:00:00 | 00:00:00 | 00:00:00 | |
| LZ4TU-5 | 2026-09-05 01:15:00 | 43.93725 | 22.81704 | 143° | 22km/h | 1676m | -11.9m/s | 15.2°C | 52.8% | 0hPa | 0V | 00:00:00 | 00:00:00 | 00:00:00 | |
| LZ4TU-5 | 2026-09-05 01:14:55 | 43.93746 | 22.81684 | 146° | 20km/h | 1742m | -12.2m/s | 14.9°C | 51.4% | 0hPa | 0V | 00:00:00 | 00:00:00 | 00:00:00 | |
| LZ4TU-5 | 2026-09-05 01:14:51 | 43.93763 | 22.81671 | 157° | 20km/h | 1794m | -12.6m/s | 14.9°C | 46.1% | 0hPa | 0V | 00:00:00 | 00:00:00 | 00:00:00 | |
| LZ4TU-5 | 2026-09-05 01:14:47 | 43.93782 | 22.81662 | 160° | 18km/h | 1847m | -12.0m/s | 15.0°C | 0% | 0hPa | 0V | 00:00:00 | 00:00:00 | 00:00:00 | |
| LZ4TU-5 | 2026-09-05 01:14:42 | 43.93801 | 22.81653 | 160° | 15km/h | 1912m | -11.8m/s | 14.7°C | 36.2% | 0hPa | 0V | 00:00:00 | 00:00:00 | 00:00:00 | |
| LZ4TU-5 | 2026-09-05 01:14:37 | 43.93814 | 22.81640 | 134° | 11km/h | 1973m | -11.6m/s | 14.6°C | 30.9% | 0hPa | 0V | 00:00:00 | 00:00:00 | 00:00:00 | |
| LZ4TU-5 | 2026-09-05 01:14:32 | 43.93821 | 22.81626 | 124° | 11km/h | 2035m | -12.0m/s | 14.8°C | 24.9% | 0hPa | 0V | 00:00:00 | 00:00:00 | 00:00:00 | |
| LZ4TU-5 | 2026-09-05 01:14:27 | 43.93827 | 22.81614 | 144° | 7km/h | 2098m | -12.1m/s | 15.5°C | 17.2% | 0hPa | 0V | 00:00:00 | 00:00:00 | 00:00:00 | |
| LZ4TU-5 | 2026-09-05 01:14:22 | 43.93836 | 22.81606 | 142° | 9km/h | 2160m | -11.9m/s | 15.8°C | 12.3% | 0hPa | 0V | 00:00:00 | 00:00:00 | 00:00:00 | |
| LZ4TU-5 | 2026-09-05 01:14:18 | 43.93842 | 22.81600 | 144° | 7km/h | 2208m | -11.3m/s | 15.4°C | 12.3% | 0hPa | 0V | 00:00:00 | 00:00:00 | 00:00:00 | |
| LZ4TU-5 | 2026-09-05 01:14:13 | 43.93848 | 22.81592 | 138° | 5km/h | 2259m | -11.7m/s | 15.0°C | 11.6% | 0hPa | 0V | 00:00:00 | 00:00:00 | 00:00:00 | |
| LZ4TU-5 | 2026-09-05 01:14:09 | 43.93855 | 22.81585 | 157° | 9km/h | 2290m | -11.5m/s | 14.6°C | 11.5% | 0hPa | 0V | 00:00:00 | 00:00:00 | 00:00:00 | |
| LZ4TU-5 | 2026-09-05 01:14:04 | 43.93866 | 22.81573 | 138° | 15km/h | 2351m | -11.4m/s | 14.4°C | 10.5% | 0hPa | 0V | 00:00:00 | 00:00:00 | 00:00:00 | |
| LZ4TU-5 | 2026-09-05 01:13:59 | 43.93878 | 22.81554 | 125° | 15km/h | 2409m | -11.9m/s | 14.3°C | 12.4% | 0hPa | 0V | 00:00:00 | 00:00:00 | 00:00:00 | |
| LZ4TU-5 | 2026-09-05 01:13:54 | 43.93890 | 22.81533 | 129° | 16km/h | 2472m | -12.3m/s | 13.9°C | 20.2% | 0hPa | 0V | 00:00:00 | 00:00:00 | 00:00:00 | |
| LZ4TU-5 | 2026-09-05 01:13:49 | 43.93905 | 22.81512 | 130° | 22km/h | 2537m | -11.3m/s | 13.5°C | 20.2% | 0hPa | 0V | 00:00:00 | 00:00:00 | 00:00:00 | |
| LZ4TU-5 | 2026-09-05 01:13:44 | 43.93922 | 22.81492 | 147° | 16km/h | 2597m | -11.8m/s | 13.4°C | 18.1% | 0hPa | 0V | 00:00:00 | 00:00:00 | 00:00:00 | |
| LZ4TU-5 | 2026-09-05 01:13:40 | 43.93938 | 22.81482 | 163° | 15km/h | 2647m | -11.3m/s | 13.1°C | 24.7% | 0hPa | 0V | 00:00:00 | 00:00:00 | 00:00:00 | |
| LZ4TU-5 | 2026-09-05 01:13:35 | 43.93958 | 22.81475 | 171° | 16km/h | 2708m | -12.2m/s | 12.5°C | 28.5% | 0hPa | 0V | 00:00:00 | 00:00:00 | 00:00:00 | |
| LZ4TU-5 | 2026-09-05 01:13:30 | 43.93978 | 22.81472 | 178° | 16km/h | 2769m | -12.1m/s | 12.0°C | 30.6% | 0hPa | 0V | 00:00:00 | 00:00:00 | 00:00:00 | |
| LZ4TU-5 | 2026-09-05 01:13:25 | 43.93999 | 22.81469 | 175° | 16km/h | 2829m | -12.0m/s | 11.4°C | 32.2% | 0hPa | 0V | 00:00:00 | 00:00:00 | 00:00:00 | |
| LZ4TU-5 | 2026-09-05 01:13:21 | 43.94015 | 22.81466 | 170° | 16km/h | 2876m | -11.9m/s | 10.9°C | 33.3% | 0hPa | 0V | 00:00:00 | 00:00:00 | 00:00:00 | |
| LZ4TU-5 | 2026-09-05 01:13:16 | 43.94038 | 22.81458 | 172° | 16km/h | 2927m | -12.2m/s | 10.4°C | 33.9% | 0hPa | 0V | 00:00:00 | 00:00:00 | 00:00:00 | |
| LZ4TU-5 | 2026-09-05 01:13:11 | 43.94061 | 22.81454 | 172° | 18km/h | 2985m | -11.6m/s | 9.9°C | 35.4% | 0hPa | 0V | 00:00:00 | 00:00:00 | 00:00:00 | |
| LZ4TU-5 | 2026-09-05 01:13:06 | 43.94085 | 22.81453 | 184° | 27km/h | 3046m | -12.4m/s | 9.7°C | 36.6% | 0hPa | 0V | 00:00:00 | 00:00:00 | 00:00:00 | |
| LZ4TU-5 | 2026-09-05 01:13:02 | 43.94106 | 22.81454 | 181° | 22km/h | 3098m | -12.9m/s | 9.7°C | 35.6% | 0hPa | 0V | 00:00:00 | 00:00:00 | 00:00:00 | |
| LZ4TU-5 | 2026-09-05 01:12:57 | 43.94137 | 22.81452 | 171° | 24km/h | 3164m | -12.7m/s | 9.2°C | 38.6% | 0hPa | 0V | 00:00:00 | 00:00:00 | 00:00:00 | |
| LZ4TU-5 | 2026-09-05 01:12:52 | 43.94168 | 22.81449 | 177° | 26km/h | 3234m | -12.9m/s | 8.7°C | 42.7% | 0hPa | 0V | 00:00:00 | 00:00:00 | 00:00:00 | |
| LZ4TU-5 | 2026-09-05 01:12:48 | 43.94194 | 22.81447 | 178° | 26km/h | 3288m | -12.2m/s | 8.2°C | 45.0% | 0hPa | 0V | 00:00:00 | 00:00:00 | 00:00:00 | |
| LZ4TU-5 | 2026-09-05 01:12:43 | 43.94227 | 22.81445 | 177° | 29km/h | 3353m | -12.9m/s | 7.7°C | 45.0% | 0hPa | 0V | 00:00:00 | 00:00:00 | 00:00:00 | |
| LZ4TU-5 | 2026-09-05 01:12:39 | 43.94256 | 22.81441 | 174° | 29km/h | 3407m | -12.0m/s | 7.3°C | 43.7% | 0hPa | 0V | 00:00:00 | 00:00:00 | 00:00:00 | |
| LZ4TU-5 | 2026-09-05 01:12:35 | 43.94285 | 22.81436 | 178° | 29km/h | 3458m | -12.8m/s | 6.9°C | 45.1% | 0hPa | 0V | 00:00:00 | 00:00:00 | 00:00:00 | |
| LZ4TU-5 | 2026-09-05 01:12:30 | 43.94320 | 22.81437 | 180° | 27km/h | 3525m | -12.1m/s | 6.3°C | 46.6% | 0hPa | 0V | 00:00:00 | 00:00:00 | 00:00:00 | |
| LZ4TU-5 | 2026-09-05 01:12:26 | 43.94349 | 22.81437 | 179° | 29km/h | 3576m | -13.1m/s | 6.0°C | 43.4% | 0hPa | 0V | 00:00:00 | 00:00:00 | 00:00:00 | |
| LZ4TU-5 | 2026-09-05 01:12:21 | 43.94383 | 22.81440 | 182° | 26km/h | 3643m | -13.0m/s | 5.7°C | 41.2% | 0hPa | 0V | 00:00:00 | 00:00:00 | 00:00:00 | |
| LZ4TU-5 | 2026-09-05 01:12:16 | 43.94417 | 22.81440 | 184° | 27km/h | 3702m | -13.3m/s | 5.2°C | 38.8% | 0hPa | 0V | 00:00:00 | 00:00:00 | 00:00:00 | |
| LZ4TU-5 | 2026-09-05 01:12:11 | 43.94455 | 22.81444 | 191° | 31km/h | 3751m | -12.1m/s | 4.9°C | 36.7% | 0hPa | 0V | 00:00:00 | 00:00:00 | 00:00:00 | |
| LZ4TU-5 | 2026-09-05 01:12:07 | 43.94488 | 22.81455 | 194° | 35km/h | 3805m | -12.9m/s | 4.7°C | 45.4% | 0hPa | 0V | 00:00:00 | 00:00:00 | 00:00:00 | |
| LZ4TU-5 | 2026-09-05 01:12:03 | 43.94522 | 22.81468 | 194° | 38km/h | 3856m | -12.3m/s | 4.5°C | 51.1% | 0hPa | 0V | 00:00:00 | 00:00:00 | 00:00:00 | |
| LZ4TU-5 | 2026-09-05 01:11:58 | 43.94567 | 22.81483 | 194° | 37km/h | 3923m | -12.6m/s | 4.0°C | 51.4% | 0hPa | 0V | 00:00:00 | 00:00:00 | 00:00:00 | |
| LZ4TU-5 | 2026-09-05 01:11:54 | 43.94604 | 22.81495 | 197° | 37km/h | 3976m | -13.3m/s | 3.6°C | 52.0% | 0hPa | 0V | 00:00:00 | 00:00:00 | 00:00:00 | |
| LZ4TU-5 | 2026-09-05 01:11:50 | 43.94641 | 22.81510 | 193° | 38km/h | 4033m | -12.7m/s | 3.2°C | 49.0% | 0hPa | 0V | 00:00:00 | 00:00:00 | 00:00:00 | |
| LZ4TU-5 | 2026-09-05 01:11:46 | 43.94679 | 22.81521 | 194° | 37km/h | 4089m | -13.2m/s | 2.8°C | 49.5% | 0hPa | 0V | 00:00:00 | 00:00:00 | 00:00:00 | |
| LZ4TU-5 | 2026-09-05 01:11:41 | 43.94725 | 22.81537 | 192° | 37km/h | 4158m | -13.1m/s | 2.3°C | 49.6% | 0hPa | 0V | 00:00:00 | 00:00:00 | 00:00:00 | |
| LZ4TU-5 | 2026-09-05 01:11:37 | 43.94760 | 22.81549 | 196° | 37km/h | 4213m | -13.6m/s | 1.9°C | 49.1% | 0hPa | 0V | 00:00:00 | 00:00:00 | 00:00:00 | |
| LZ4TU-5 | 2026-09-05 01:11:32 | 43.94806 | 22.81565 | 194° | 37km/h | 4280m | -12.9m/s | 1.3°C | 49.0% | 0hPa | 0V | 00:00:00 | 00:00:00 | 00:00:00 | |
| LZ4TU-5 | 2026-09-05 01:11:27 | 43.94852 | 22.81580 | 196° | 38km/h | 4341m | -14.0m/s | 0.8°C | 49.5% | 0hPa | 0V | 00:00:00 | 00:00:00 | 00:00:00 | |
| LZ4TU-5 | 2026-09-05 01:11:22 | 43.94900 | 22.81594 | 194° | 37km/h | 4393m | -13.5m/s | 0.1°C | 49.3% | 0hPa | 0V | 00:00:00 | 00:00:00 | 00:00:00 | |
| LZ4TU-5 | 2026-09-05 01:11:17 | 43.94947 | 22.81610 | 196° | 38km/h | 4460m | -12.6m/s | -0.3°C | 49.0% | 0hPa | 0V | 00:00:00 | 00:00:00 | 00:00:00 | |
| LZ4TU-5 | 2026-09-05 01:11:13 | 43.94986 | 22.81624 | 198° | 42km/h | 4514m | -12.9m/s | -0.7°C | 48.4% | 0hPa | 0V | 00:00:00 | 00:00:00 | 00:00:00 | |
| LZ4TU-5 | 2026-09-05 01:11:08 | 43.95038 | 22.81645 | 197° | 42km/h | 4583m | -13.2m/s | -1.1°C | 43.5% | 0hPa | 0V | 00:00:00 | 00:00:00 | 00:00:00 | |
| LZ4TU-5 | 2026-09-05 01:11:03 | 43.95088 | 22.81669 | 202° | 42km/h | 4654m | -13.5m/s | -1.6°C | 44.5% | 0hPa | 0V | 00:00:00 | 00:00:00 | 00:00:00 | |
| LZ4TU-5 | 2026-09-05 01:10:58 | 43.95135 | 22.81695 | 202° | 38km/h | 4725m | -13.8m/s | -2.2°C | 46.6% | 0hPa | 0V | 00:00:00 | 00:00:00 | 00:00:00 | |
| LZ4TU-5 | 2026-09-05 01:10:54 | 43.95172 | 22.81715 | 202° | 38km/h | 4784m | -13.2m/s | -2.7°C | 47.3% | 0hPa | 0V | 00:00:00 | 00:00:00 | 00:00:00 | |
| LZ4TU-5 | 2026-09-05 01:10:49 | 43.95213 | 22.81743 | 207° | 37km/h | 4852m | -12.6m/s | -3.3°C | 47.7% | 0hPa | 0V | 00:00:00 | 00:00:00 | 00:00:00 | |
| LZ4TU-5 | 2026-09-05 01:10:39 | 43.95303 | 22.81807 | 210° | 37km/h | 5001m | -12.8m/s | -4.7°C | 48.8% | 0hPa | 0V | 00:00:00 | 00:00:00 | 00:00:00 | |
| LZ4TU-5 | 2026-09-05 01:10:34 | 43.95334 | 22.81832 | 211° | 35km/h | 5054m | -13.1m/s | -5.1°C | 0% | 0hPa | 0V | 00:00:00 | 00:00:00 | 00:00:00 | |
| LZ4TU-5 | 2026-09-05 01:09:28 | 43.95903 | 22.82188 | 177° | 35km/h | 5876m | -11.8m/s | -9.1°C | 16.7% | 0hPa | 0V | 00:00:00 | 00:00:00 | 00:00:00 | |
| LZ4TU-5 | 2026-09-05 01:09:24 | 43.95936 | 22.82184 | 171° | 31km/h | 5927m | -12.8m/s | -9.2°C | 14.7% | 0hPa | 0V | 00:00:00 | 00:00:00 | 00:00:00 | |
| LZ4TU-5 | 2026-09-05 01:09:20 | 43.95966 | 22.82177 | 169° | 33km/h | 5980m | -12.7m/s | -9.1°C | 13.3% | 0hPa | 0V | 00:00:00 | 00:00:00 | 00:00:00 | |
| LZ4TU-5 | 2026-09-05 01:09:12 | 43.96030 | 22.82155 | 166° | 33km/h | 6082m | -12.1m/s | -9.0°C | 12.0% | 0hPa | 0V | 00:00:00 | 00:00:00 | 00:00:00 | |
| LZ4TU-5 | 2026-09-05 01:08:58 | 43.96135 | 22.82081 | 141° | 37km/h | 6238m | -11.3m/s | -9.8°C | 0% | 0hPa | 0V | 00:00:00 | 00:00:00 | 00:00:00 | |
| LZ4TU-5 | 2026-09-05 01:07:33 | 43.96610 | 22.81290 | 126° | 31km/h | 7282m | -13.0m/s | -16.6°C | 22.0% | 0hPa | 0V | 00:00:00 | 00:00:00 | 00:00:00 | |
| LZ4TU-5 | 2026-09-05 01:07:03 | 43.96769 | 22.81039 | 139° | 33km/h | 7703m | -14.6m/s | -20.0°C | 19.1% | 0hPa | 0V | 00:00:00 | 00:00:00 | 00:00:00 | |
| LZ4TU-5 | 2026-09-05 01:06:59 | 43.96794 | 22.81011 | 143° | 31km/h | 7763m | -14.8m/s | -20.4°C | 18.4% | 0hPa | 0V | 00:00:00 | 00:00:00 | 00:00:00 | |
| LZ4TU-5 | 2026-09-05 01:06:46 | 43.96887 | 22.80933 | 153° | 31km/h | 7942m | -15.3m/s | -21.8°C | 17.6% | 0hPa | 0V | 00:00:00 | 00:00:00 | 00:00:00 | |
| LZ4TU-5 | 2026-09-05 01:06:41 | 43.96923 | 22.80907 | 150° | 31km/h | 8019m | -15.3m/s | -22.3°C | 16.8% | 0hPa | 0V | 00:00:00 | 00:00:00 | 00:00:00 | |
| LZ4TU-5 | 2026-09-05 01:06:37 | 43.96950 | 22.80886 | 152° | 31km/h | 8081m | -15.2m/s | -22.9°C | 16.7% | 0hPa | 0V | 00:00:00 | 00:00:00 | 00:00:00 | |
| LZ4TU-5 | 2026-09-05 01:06:31 | 43.96990 | 22.80850 | 145° | 33km/h | 8172m | -14.3m/s | -23.7°C | 0% | 0hPa | 0V | 00:00:00 | 00:00:00 | 00:00:00 | |
| LZ4TU-5 | 2026-09-05 00:59:57 | 44.01169 | 22.77793 | 162° | 31km/h | 14256m | -17.2m/s | -62.7°C | 2.4% | 0hPa | 0V | 00:00:00 | 00:00:00 | 00:00:00 | |
| LZ4TU-5 | 2026-09-05 00:57:12 | 44.01577 | 22.76260 | 74° | 37km/h | 17434m | -21.4m/s | -60.0°C | 0.0% | 0hPa | 0V | 00:00:00 | 00:00:00 | 00:00:00 | |
| LZ4TU-5 | 2026-09-05 00:55:42 | 44.01367 | 22.75580 | 87° | 22km/h | 19393m | -24.4m/s | -56.4°C | 0.0% | 0hPa | 0V | 00:00:00 | 00:00:00 | 00:00:00 | |
| LZ4TU-5 | 2026-09-05 00:55:38 | 44.01365 | 22.75561 | 72° | 7km/h | 19497m | -25.3m/s | -56.2°C | 0.0% | 0hPa | 0V | 00:00:00 | 00:00:00 | 00:00:00 | |
| LZ4TU-5 | 2026-09-05 00:50:56 | 44.01258 | 22.74838 | 5° | 5km/h | 27104m | -33.0m/s | -47.9°C | 0.0% | 0hPa | 0V | 00:00:00 | 00:00:00 | 00:00:00 | |
| LZ4TU-5 | 2026-09-05 00:50:41 | 44.01279 | 22.74823 | 257° | 7km/h | 27757m | -32.7m/s | -46.7°C | 0.0% | 0hPa | 0V | 00:00:00 | 00:00:00 | 00:00:00 | |
| LZ4TU-5 | 2026-09-05 00:50:32 | 44.01270 | 22.74827 | 306° | 5km/h | 28073m | -32.3m/s | -46.6°C | 0.0% | 0hPa | 0V | 00:00:00 | 00:00:00 | 00:00:00 | |
| LZ4TU-5 | 2026-09-05 00:50:23 | 44.01255 | 22.74860 | 337° | 11km/h | 28401m | -31.2m/s | -46.2°C | 0.0% | 0hPa | 0V | 00:00:00 | 00:00:00 | 00:00:00 | |
| LZ4TU-5 | 2026-09-05 00:50:17 | 44.01233 | 22.74861 | 58° | 9km/h | 28623m | -30.1m/s | -46.5°C | 0.0% | 0hPa | 0V | 00:00:00 | 00:00:00 | 00:00:00 | |
| LZ4TU-5 | 2026-09-05 00:50:06 | 44.01241 | 22.74821 | 312° | 5km/h | 29180m | -23.1m/s | -46.2°C | 0.0% | 0hPa | 0V | 00:00:00 | 00:00:00 | 00:00:00 | |
| LZ4TU-5 | 2026-09-05 00:46:53 | 44.01135 | 22.75156 | 316° | 13km/h | 32362m | 6.7m/s | -43.9°C | 0.0% | 0hPa | 0V | 00:00:00 | 00:00:00 | 00:00:00 | |
| LZ4TU-5 | 2026-09-05 00:46:13 | 44.01064 | 22.75284 | 32° | 7km/h | 32084m | 7.0m/s | -44.7°C | 0.0% | 0hPa | 0V | 00:00:00 | 00:00:00 | 00:00:00 | |
| LZ4TU-5 | 2026-09-05 00:45:49 | 44.01017 | 22.75323 | 347° | 18km/h | 31918m | 6.8m/s | -44.9°C | 0.0% | 0hPa | 0V | 00:00:00 | 00:00:00 | 00:00:00 | |
| LZ4TU-5 | 2026-09-05 00:42:19 | 44.00895 | 22.76001 | 194° | 35km/h | 30406m | 7.0m/s | -44.8°C | 0.0% | 0hPa | 0V | 00:00:00 | 00:00:00 | 00:00:00 | |
| LZ4TU-5 | 2026-09-05 00:42:07 | 44.00969 | 22.76036 | 196° | 22km/h | 30318m | 6.6m/s | -44.8°C | 0.0% | 0hPa | 0V | 00:00:00 | 00:00:00 | 00:00:00 | |
| LZ4TU-5 | 2026-09-05 00:39:34 | 44.01126 | 22.75873 | 212° | 9km/h | 29264m | 7.3m/s | -44.7°C | 0.0% | 0hPa | 0V | 00:00:00 | 00:00:00 | 00:00:00 | |
| LZ4TU-5 | 2026-09-05 00:39:30 | 44.01136 | 22.75890 | 262° | 15km/h | 29237m | 7.3m/s | -44.8°C | 0.0% | 0hPa | 0V | 00:00:00 | 00:00:00 | 00:00:00 | |
| LZ4TU-5 | 2026-09-05 00:39:25 | 44.01125 | 22.75882 | 79° | 22km/h | 29200m | 7.0m/s | -45.1°C | 0.0% | 0hPa | 0V | 00:00:00 | 00:00:00 | 00:00:00 | |
| LZ4TU-5 | 2026-09-05 00:36:41 | 44.00873 | 22.75882 | 255° | 18km/h | 28085m | 6.5m/s | -46.5°C | 0.0% | 0hPa | 0V | 00:00:00 | 00:00:00 | 00:00:00 | |
| LZ4TU-5 | 2026-09-05 00:36:36 | 44.00867 | 22.75922 | 295° | 20km/h | 28050m | 6.4m/s | -46.8°C | 0% | 0hPa | 0V | 00:00:00 | 00:00:00 | 00:00:00 | |
| LZ4TU-5 | 2026-09-05 00:35:00 | 44.00903 | 22.75971 | 34° | 5km/h | 27405m | 6.0m/s | -48.4°C | 0.0% | 0hPa | 0V | 00:00:00 | 00:00:00 | 00:00:00 | |
| LZ4TU-5 | 2026-09-05 00:32:24 | 44.00950 | 22.75605 | 143° | 7km/h | 26389m | 7.1m/s | -49.1°C | 0.0% | 0hPa | 0V | 00:00:00 | 00:00:00 | 00:00:00 | |
| LZ4TU-5 | 2026-09-05 00:32:19 | 44.00965 | 22.75595 | 152° | 22km/h | 26354m | 7.5m/s | -49.3°C | 0.0% | 0hPa | 0V | 00:00:00 | 00:00:00 | 00:00:00 | |
| LZ4TU-5 | 2026-09-05 00:32:15 | 44.00980 | 22.75581 | 79° | 5km/h | 26326m | 7.2m/s | -49.4°C | 0.0% | 0hPa | 0V | 00:00:00 | 00:00:00 | 00:00:00 | |
| LZ4TU-5 | 2026-09-05 00:32:10 | 44.00988 | 22.75578 | 168° | 22km/h | 26295m | 6.2m/s | -49.5°C | 0.0% | 0hPa | 0V | 00:00:00 | 00:00:00 | 00:00:00 | |
| LZ4TU-5 | 2026-09-05 00:32:05 | 44.01004 | 22.75549 | 79° | 11km/h | 26263m | 6.4m/s | -49.7°C | 0.0% | 0hPa | 0V | 00:00:00 | 00:00:00 | 00:00:00 | |
| LZ4TU-5 | 2026-09-05 00:32:00 | 44.01015 | 22.75545 | 136° | 13km/h | 26234m | 8.1m/s | -49.8°C | 0.0% | 0hPa | 0V | 00:00:00 | 00:00:00 | 00:00:00 | |
| LZ4TU-5 | 2026-09-05 00:30:28 | 44.01023 | 22.75366 | 116° | 29km/h | 25641m | 6.2m/s | -50.1°C | 0.0% | 0hPa | 0V | 00:00:00 | 00:00:00 | 00:00:00 | |
| LZ4TU-5 | 2026-09-05 00:30:23 | 44.01046 | 22.75351 | 174° | 16km/h | 25608m | 6.2m/s | -50.5°C | 0.0% | 0hPa | 0V | 00:00:00 | 00:00:00 | 00:00:00 | |
| LZ4TU-5 | 2026-09-05 00:30:18 | 44.01069 | 22.75311 | 125° | 20km/h | 25570m | 7.2m/s | -50.6°C | 0.0% | 0hPa | 0V | 00:00:00 | 00:00:00 | 00:00:00 | |
| LZ4TU-5 | 2026-09-05 00:30:12 | 44.01066 | 22.75305 | 354° | 13km/h | 25536m | 6.8m/s | -50.6°C | 0.0% | 0hPa | 0V | 00:00:00 | 00:00:00 | 00:00:00 | |
| LZ4TU-5 | 2026-09-05 00:28:33 | 44.00801 | 22.75149 | 38° | 13km/h | 24911m | 5.6m/s | -52.0°C | 0.0% | 0hPa | 0V | 00:00:00 | 00:00:00 | 00:00:00 | |
| LZ4TU-5 | 2026-09-05 00:28:28 | 44.00796 | 22.75127 | 19° | 7km/h | 24879m | 5.4m/s | -52.1°C | 0.0% | 0hPa | 0V | 00:00:00 | 00:00:00 | 00:00:00 | |
| LZ4TU-5 | 2026-09-05 00:28:22 | 44.00756 | 22.75125 | 347° | 13km/h | 24842m | 5.8m/s | -52.1°C | 0.0% | 0hPa | 0V | 00:00:00 | 00:00:00 | 00:00:00 | |
| LZ4TU-5 | 2026-09-05 00:28:17 | 44.00754 | 22.75115 | 92° | 11km/h | 24810m | 6.4m/s | -52.3°C | 0% | 0hPa | 0V | 00:00:00 | 00:00:00 | 00:00:00 | |
| LZ4TU-5 | 2026-09-05 00:26:43 | 44.00488 | 22.75151 | 75° | 18km/h | 24203m | 4.6m/s | -52.6°C | 0.0% | 0hPa | 0V | 00:00:00 | 00:00:00 | 00:00:00 | |
| LZ4TU-5 | 2026-09-05 00:26:38 | 44.00471 | 22.75138 | 351° | 5km/h | 24175m | 6.0m/s | -52.5°C | 0.0% | 0hPa | 0V | 00:00:00 | 00:00:00 | 00:00:00 | |
| LZ4TU-5 | 2026-09-05 00:26:33 | 44.00463 | 22.75122 | 50° | 15km/h | 24143m | 6.3m/s | -52.7°C | 0.0% | 0hPa | 0V | 00:00:00 | 00:00:00 | 00:00:00 | |
| LZ4TU-5 | 2026-09-05 00:24:56 | 44.00463 | 22.75169 | 234° | 11km/h | 23551m | 7.1m/s | -53.8°C | 0.0% | 0hPa | 0V | 00:00:00 | 00:00:00 | 00:00:00 | |
| LZ4TU-5 | 2026-09-05 00:24:51 | 44.00469 | 22.75184 | 135° | 5km/h | 23519m | 7.2m/s | -53.9°C | 0.0% | 0hPa | 0V | 00:00:00 | 00:00:00 | 00:00:00 | |
| LZ4TU-5 | 2026-09-05 00:24:46 | 44.00485 | 22.75166 | 188° | 22km/h | 23485m | 6.5m/s | -53.9°C | 0.0% | 0hPa | 0V | 00:00:00 | 00:00:00 | 00:00:00 | |
| LZ4TU-5 | 2026-09-05 00:24:41 | 44.00501 | 22.75184 | 209° | 9km/h | 23455m | 6.3m/s | -53.9°C | 0.0% | 0hPa | 0V | 00:00:00 | 00:00:00 | 00:00:00 | |
| LZ4TU-5 | 2026-09-05 00:23:08 | 44.00439 | 22.75084 | 266° | 11km/h | 22891m | 6.3m/s | -55.3°C | 0.0% | 0hPa | 0V | 00:00:00 | 00:00:00 | 00:00:00 | |
| LZ4TU-5 | 2026-09-05 00:23:05 | 44.00435 | 22.75106 | 313° | 18km/h | 22867m | 7.1m/s | -55.3°C | 0.0% | 0hPa | 0V | 00:00:00 | 00:00:00 | 00:00:00 | |
| LZ4TU-5 | 2026-09-05 00:22:58 | 44.00423 | 22.75117 | 220° | 5km/h | 22832m | 6.3m/s | -55.1°C | 0.0% | 0hPa | 0V | 00:00:00 | 00:00:00 | 00:00:00 | |
| LZ4TU-5 | 2026-09-05 00:22:54 | 44.00421 | 22.75132 | 294° | 20km/h | 22807m | 6.7m/s | -55.0°C | 0.0% | 0hPa | 0V | 00:00:00 | 00:00:00 | 00:00:00 | |
| LZ4TU-5 | 2026-09-05 00:21:25 | 44.00386 | 22.74933 | 21° | 24km/h | 22266m | 4.8m/s | -55.0°C | 0.0% | 0hPa | 0V | 00:00:00 | 00:00:00 | 00:00:00 | |
| LZ4TU-5 | 2026-09-05 00:21:20 | 44.00366 | 22.74929 | 37° | 13km/h | 22240m | 6.8m/s | -55.0°C | 0.0% | 0hPa | 0V | 00:00:00 | 00:00:00 | 00:00:00 | |
| LZ4TU-5 | 2026-09-05 00:21:15 | 44.00360 | 22.74914 | 12° | 13km/h | 22209m | 5.9m/s | -55.0°C | 0.0% | 0hPa | 0V | 00:00:00 | 00:00:00 | 00:00:00 | |
| LZ4TU-5 | 2026-09-05 00:21:10 | 44.00338 | 22.74914 | 335° | 24km/h | 22177m | 5.3m/s | -55.0°C | 0.0% | 0hPa | 0V | 00:00:00 | 00:00:00 | 00:00:00 | |
| LZ4TU-5 | 2026-09-05 00:19:38 | 44.00291 | 22.74782 | 57° | 24km/h | 21650m | 5.6m/s | -56.9°C | 0.0% | 0hPa | 0V | 00:00:00 | 00:00:00 | 00:00:00 | |
| LZ4TU-5 | 2026-09-05 00:19:34 | 44.00283 | 22.74747 | 81° | 33km/h | 21625m | 6.9m/s | -56.7°C | 0.0% | 0hPa | 0V | 00:00:00 | 00:00:00 | 00:00:00 | |
| LZ4TU-5 | 2026-09-05 00:19:28 | 44.00275 | 22.74698 | 34° | 20km/h | 21591m | 7.2m/s | -56.6°C | 0.0% | 0hPa | 0V | 00:00:00 | 00:00:00 | 00:00:00 | |
| LZ4TU-5 | 2026-09-05 00:19:24 | 44.00252 | 22.74679 | 57° | 24km/h | 21567m | 5.1m/s | -56.5°C | 0.0% | 0hPa | 0V | 00:00:00 | 00:00:00 | 00:00:00 | |
| LZ4TU-5 | 2026-09-05 00:17:45 | 44.00074 | 22.74414 | 40° | 27km/h | 20982m | 7.1m/s | -56.7°C | 0.3% | 0hPa | 0V | 00:00:00 | 00:00:00 | 00:00:00 | |
| LZ4TU-5 | 2026-09-05 00:17:40 | 44.00056 | 22.74393 | 68° | 4km/h | 20952m | 7.2m/s | -56.5°C | 0.4% | 0hPa | 0V | 00:00:00 | 00:00:00 | 00:00:00 | |
| LZ4TU-5 | 2026-09-05 00:17:34 | 44.00048 | 22.74373 | 57° | 27km/h | 20916m | 6.4m/s | -56.3°C | 0.3% | 0hPa | 0V | 00:00:00 | 00:00:00 | 00:00:00 | |
| LZ4TU-5 | 2026-09-05 00:17:30 | 44.00033 | 22.74348 | 96° | 9km/h | 20894m | 7.0m/s | -56.1°C | 0% | 0hPa | 0V | 00:00:00 | 00:00:00 | 00:00:00 | |
| LZ4TU-5 | 2026-09-05 00:15:46 | 44.00185 | 22.74083 | 111° | 27km/h | 20290m | 5.3m/s | -56.6°C | 0.2% | 0hPa | 0V | 00:00:00 | 00:00:00 | 00:00:00 | |
| LZ4TU-5 | 2026-09-05 00:15:41 | 44.00191 | 22.74030 | 90° | 27km/h | 20262m | 5.6m/s | -56.8°C | 0.3% | 0hPa | 0V | 00:00:00 | 00:00:00 | 00:00:00 | |
| LZ4TU-5 | 2026-09-05 00:15:35 | 44.00204 | 22.73969 | 117° | 33km/h | 20227m | 5.9m/s | -57.2°C | 0.4% | 0hPa | 0V | 00:00:00 | 00:00:00 | 00:00:00 | |
| LZ4TU-5 | 2026-09-05 00:15:30 | 44.00211 | 22.73909 | 86° | 37km/h | 20197m | 5.4m/s | -57.4°C | 0% | 0hPa | 0V | 00:00:00 | 00:00:00 | 00:00:00 | |
| LZ4TU-5 | 2026-09-05 00:13:45 | 44.00032 | 22.73425 | 287° | 7km/h | 19608m | 5.2m/s | -56.5°C | 0.7% | 0hPa | 0V | 00:00:00 | 00:00:00 | 00:00:00 | |
| LZ4TU-5 | 2026-09-05 00:13:40 | 44.00039 | 22.73413 | 132° | 13km/h | 19581m | 5.7m/s | -56.6°C | 0.7% | 0hPa | 0V | 00:00:00 | 00:00:00 | 00:00:00 | |
| LZ4TU-5 | 2026-09-05 00:13:34 | 44.00038 | 22.73396 | 81° | 13km/h | 19546m | 6.1m/s | -56.6°C | 0.6% | 0hPa | 0V | 00:00:00 | 00:00:00 | 00:00:00 | |
| LZ4TU-5 | 2026-09-05 00:13:29 | 44.00039 | 22.73375 | 103° | 9km/h | 19516m | 5.2m/s | -56.7°C | 0% | 0hPa | 0V | 00:00:00 | 00:00:00 | 00:00:00 | |
| LZ4TU-5 | 2026-09-05 00:11:58 | 43.99805 | 22.72694 | 21° | 7km/h | 19001m | 5.3m/s | -57.0°C | 0.7% | 0hPa | 0V | 00:00:00 | 00:00:00 | 00:00:00 | |
| LZ4TU-5 | 2026-09-05 00:11:53 | 43.99793 | 22.72676 | 58° | 5km/h | 18970m | 6.5m/s | -57.1°C | 0.7% | 0hPa | 0V | 00:00:00 | 00:00:00 | 00:00:00 | |
| LZ4TU-5 | 2026-09-05 00:11:47 | 43.99783 | 22.72677 | 58° | 7km/h | 18934m | 6.4m/s | -57.7°C | 0.4% | 0hPa | 0V | 00:00:00 | 00:00:00 | 00:00:00 | |
| LZ4TU-5 | 2026-09-05 00:11:43 | 43.99794 | 22.72663 | 140° | 24km/h | 18908m | 5.2m/s | -58.1°C | 0.4% | 0hPa | 0V | 00:00:00 | 00:00:00 | 00:00:00 | |
| LZ4TU-5 | 2026-09-05 00:10:16 | 43.99925 | 22.72244 | 128° | 16km/h | 18433m | 3.7m/s | -59.6°C | 0.7% | 0hPa | 0V | 00:00:00 | 00:00:00 | 00:00:00 | |
| LZ4TU-5 | 2026-09-05 00:10:11 | 43.99937 | 22.72198 | 120° | 38km/h | 18405m | 4.7m/s | -59.9°C | 0.9% | 0hPa | 0V | 00:00:00 | 00:00:00 | 00:00:00 | |
| LZ4TU-5 | 2026-09-05 00:10:05 | 43.99945 | 22.72149 | 76° | 22km/h | 18374m | 4.5m/s | -59.8°C | 1.0% | 0hPa | 0V | 00:00:00 | 00:00:00 | 00:00:00 | |
| LZ4TU-5 | 2026-09-05 00:10:00 | 43.99945 | 22.72098 | 117° | 33km/h | 18347m | 5.4m/s | -59.7°C | 1.0% | 0hPa | 0V | 00:00:00 | 00:00:00 | 00:00:00 | |
| LZ4TU-5 | 2026-09-05 00:08:34 | 43.99573 | 22.71322 | 30° | 29km/h | 17869m | 5.2m/s | -57.1°C | 1.9% | 0hPa | 0V | 00:00:00 | 00:00:00 | 00:00:00 | |
| LZ4TU-5 | 2026-09-05 00:08:29 | 43.99549 | 22.71284 | 59° | 33km/h | 17841m | 6.4m/s | -57.0°C | 1.9% | 0hPa | 0V | 00:00:00 | 00:00:00 | 00:00:00 | |
| LZ4TU-5 | 2026-09-05 00:08:23 | 43.99524 | 22.71256 | 24° | 15km/h | 17807m | 4.2m/s | -56.8°C | 1.9% | 0hPa | 0V | 00:00:00 | 00:00:00 | 00:00:00 | |
| LZ4TU-5 | 2026-09-05 00:08:18 | 43.99511 | 22.71230 | 59° | 31km/h | 17779m | 4.4m/s | -56.6°C | 1.8% | 0hPa | 0V | 00:00:00 | 00:00:00 | 00:00:00 | |
| LZ4TU-5 | 2026-09-05 00:06:48 | 43.99464 | 22.70385 | 66° | 38km/h | 17298m | 6.0m/s | -59.5°C | 2.6% | 0hPa | 0V | 00:00:00 | 00:00:00 | 00:00:00 | |
| LZ4TU-5 | 2026-09-05 00:06:43 | 43.99441 | 22.70337 | 71° | 27km/h | 17272m | 5.5m/s | -59.6°C | 2.7% | 0hPa | 0V | 00:00:00 | 00:00:00 | 00:00:00 | |
| LZ4TU-5 | 2026-09-05 00:06:37 | 43.99434 | 22.70266 | 72° | 33km/h | 17239m | 5.4m/s | -59.4°C | 2.8% | 0hPa | 0V | 00:00:00 | 00:00:00 | 00:00:00 | |
| LZ4TU-5 | 2026-09-05 00:06:32 | 43.99422 | 22.70226 | 92° | 26km/h | 17211m | 5.3m/s | -59.2°C | 2.8% | 0hPa | 0V | 00:00:00 | 00:00:00 | 00:00:00 | |
| LZ4TU-5 | 2026-09-05 00:05:02 | 43.99703 | 22.69393 | 131° | 42km/h | 16750m | 3.5m/s | -60.7°C | 3.3% | 0hPa | 0V | 00:00:00 | 00:00:00 | 00:00:00 | |
| LZ4TU-5 | 2026-09-05 00:04:57 | 43.99727 | 22.69312 | 115° | 47km/h | 16726m | 4.0m/s | -60.6°C | 3.4% | 0hPa | 0V | 00:00:00 | 00:00:00 | 00:00:00 | |
| LZ4TU-5 | 2026-09-05 00:04:51 | 43.99755 | 22.69246 | 123° | 46km/h | 16698m | 5.1m/s | -61.0°C | 3.6% | 0hPa | 0V | 00:00:00 | 00:00:00 | 00:00:00 | |
| LZ4TU-5 | 2026-09-05 00:04:47 | 43.99784 | 22.69164 | 111° | 53km/h | 16672m | 4.2m/s | -60.8°C | 0% | 0hPa | 0V | 00:00:00 | 00:00:00 | 00:00:00 | |
| LZ4TU-5 | 2026-09-05 00:03:17 | 43.99851 | 22.68157 | 51° | 22km/h | 16211m | 4.9m/s | -59.7°C | 5.0% | 0hPa | 0V | 00:00:00 | 00:00:00 | 00:00:00 | |
| LZ4TU-5 | 2026-09-05 00:03:12 | 43.99837 | 22.68123 | 71° | 24km/h | 16186m | 4.6m/s | -59.6°C | 5.1% | 0hPa | 0V | 00:00:00 | 00:00:00 | 00:00:00 | |
| LZ4TU-5 | 2026-09-05 00:03:06 | 43.99831 | 22.68073 | 53° | 22km/h | 16154m | 4.8m/s | -59.4°C | 5.2% | 0hPa | 0V | 00:00:00 | 00:00:00 | 00:00:00 | |
| LZ4TU-5 | 2026-09-05 00:01:18 | 43.99776 | 22.67114 | 106° | 29km/h | 15524m | 6.5m/s | -61.2°C | 8.4% | 0hPa | 0V | 00:00:00 | 00:00:00 | 00:00:00 | |
| LZ4TU-5 | 2026-09-05 00:01:14 | 43.99788 | 22.67085 | 147° | 18km/h | 15496m | 4.8m/s | -61.4°C | 8.6% | 0hPa | 0V | 00:00:00 | 00:00:00 | 00:00:00 | |
| LZ4TU-5 | 2026-09-05 00:01:10 | 43.99800 | 22.67056 | 90° | 26km/h | 15469m | 5.8m/s | -61.5°C | 8.9% | 0hPa | 0V | 00:00:00 | 00:00:00 | 00:00:00 | |
| LZ4TU-5 | 2026-09-05 00:01:01 | 43.99808 | 22.67027 | 157° | 20km/h | 15439m | 7.6m/s | -61.6°C | 9.1% | 0hPa | 0V | 00:00:00 | 00:00:00 | 00:00:00 | |
| LZ4TU-5 | 2026-09-04 23:59:31 | 44.00372 | 22.66402 | 142° | 35km/h | 14937m | 5.9m/s | -59.9°C | 16.8% | 0hPa | 0V | 00:00:00 | 00:00:00 | 00:00:00 | |
| LZ4TU-5 | 2026-09-04 23:59:26 | 44.00414 | 22.66348 | 124° | 40km/h | 14911m | 4.1m/s | -59.7°C | 17.4% | 0hPa | 0V | 00:00:00 | 00:00:00 | 00:00:00 | |
| LZ4TU-5 | 2026-09-04 23:59:21 | 44.00450 | 22.66295 | 135° | 35km/h | 14881m | 4.6m/s | -59.5°C | 17.9% | 0hPa | 0V | 00:00:00 | 00:00:00 | 00:00:00 | |
| LZ4TU-5 | 2026-09-04 23:59:16 | 44.00468 | 22.66262 | 126° | 31km/h | 14858m | 6.2m/s | -59.3°C | 18.3% | 0hPa | 0V | 00:00:00 | 00:00:00 | 00:00:00 | |
| LZ4TU-5 | 2026-09-04 23:57:48 | 44.01014 | 22.65658 | 145° | 22km/h | 14419m | 5.3m/s | -62.6°C | 30.9% | 0hPa | 0V | 00:00:00 | 00:00:00 | 00:00:00 | |
| LZ4TU-5 | 2026-09-04 23:57:44 | 44.01053 | 22.65649 | 173° | 46km/h | 14395m | 5.9m/s | -62.6°C | 31.5% | 0hPa | 0V | 00:00:00 | 00:00:00 | 00:00:00 | |
| LZ4TU-5 | 2026-09-04 23:57:38 | 44.01095 | 22.65631 | 166° | 31km/h | 14360m | 3.8m/s | -63.2°C | 32.8% | 0hPa | 0V | 00:00:00 | 00:00:00 | 00:00:00 | |
| LZ4TU-5 | 2026-09-04 23:57:34 | 44.01140 | 22.65632 | 186° | 53km/h | 14337m | 5.0m/s | -63.2°C | 33.3% | 0hPa | 0V | 00:00:00 | 00:00:00 | 00:00:00 | |
| LZ4TU-5 | 2026-09-04 23:56:05 | 44.02056 | 22.65231 | 181° | 26km/h | 13774m | 6.0m/s | -65.0°C | 41.7% | 0hPa | 0V | 00:00:00 | 00:00:00 | 00:00:00 | |
| LZ4TU-5 | 2026-09-04 23:56:00 | 44.02107 | 22.65234 | 165° | 60km/h | 13752m | 4.8m/s | -64.9°C | 41.7% | 0hPa | 0V | 00:00:00 | 00:00:00 | 00:00:00 | |
| LZ4TU-5 | 2026-09-04 23:55:54 | 44.02165 | 22.65196 | 203° | 38km/h | 13702m | 9.5m/s | -65.0°C | 41.8% | 0hPa | 0V | 00:00:00 | 00:00:00 | 00:00:00 | |
| LZ4TU-5 | 2026-09-04 23:55:50 | 44.02199 | 22.65216 | 189° | 35km/h | 13675m | 8.5m/s | -65.3°C | 42.0% | 0hPa | 0V | 00:00:00 | 00:00:00 | 00:00:00 | |
| LZ4TU-5 | 2026-09-04 23:54:20 | 44.03440 | 22.64842 | 182° | 51km/h | 13112m | 4.3m/s | -63.5°C | 39.7% | 0hPa | 0V | 00:00:00 | 00:00:00 | 00:00:00 | |
| LZ4TU-5 | 2026-09-04 23:54:15 | 44.03502 | 22.64843 | 181° | 49km/h | 13088m | 4.7m/s | -63.4°C | 39.6% | 0hPa | 0V | 00:00:00 | 00:00:00 | 00:00:00 | |
| LZ4TU-5 | 2026-09-04 23:54:09 | 44.03579 | 22.64832 | 176° | 51km/h | 13056m | 4.5m/s | -63.2°C | 39.7% | 0hPa | 0V | 00:00:00 | 00:00:00 | 00:00:00 | |
| LZ4TU-5 | 2026-09-04 23:54:04 | 44.03637 | 22.64832 | 184° | 44km/h | 13030m | 4.1m/s | -63.0°C | 39.7% | 0hPa | 0V | 00:00:00 | 00:00:00 | 00:00:00 | |
| LZ4TU-5 | 2026-09-04 23:52:34 | 44.04806 | 22.64478 | 167° | 55km/h | 12504m | 7.8m/s | -59.4°C | 46.5% | 0hPa | 0V | 00:00:00 | 00:00:00 | 00:00:00 | |
| LZ4TU-5 | 2026-09-04 23:52:30 | 44.04861 | 22.64441 | 147° | 68km/h | 12475m | 6.8m/s | -59.1°C | 46.9% | 0hPa | 0V | 00:00:00 | 00:00:00 | 00:00:00 | |
| LZ4TU-5 | 2026-09-04 23:52:24 | 44.04949 | 22.64360 | 146° | 62km/h | 12439m | 6.2m/s | -58.9°C | 47.7% | 0hPa | 0V | 00:00:00 | 00:00:00 | 00:00:00 | |
| LZ4TU-5 | 2026-09-04 23:52:19 | 44.05019 | 22.64304 | 149° | 73km/h | 12410m | 5.6m/s | -58.7°C | 0% | 0hPa | 0V | 00:00:00 | 00:00:00 | 00:00:00 | |
| LZ4TU-5 | 2026-09-04 23:50:49 | 44.06246 | 22.63365 | 153° | 64km/h | 11903m | 4.3m/s | -55.0°C | 54.2% | 0hPa | 0V | 00:00:00 | 00:00:00 | 00:00:00 | |
| LZ4TU-5 | 2026-09-04 23:50:44 | 44.06306 | 22.63328 | 160° | 55km/h | 11880m | 4.8m/s | -54.8°C | 54.5% | 0hPa | 0V | 00:00:00 | 00:00:00 | 00:00:00 | |
| LZ4TU-5 | 2026-09-04 23:50:34 | 44.06435 | 22.63243 | 158° | 60km/h | 11827m | 6.4m/s | -54.4°C | 55.4% | 0hPa | 0V | 00:00:00 | 00:00:00 | 00:00:00 | |
| LZ4TU-5 | 2026-09-04 23:49:03 | 44.07603 | 22.62654 | 154° | 33km/h | 11360m | 6.4m/s | -50.5°C | 49.0% | 0hPa | 0V | 00:00:00 | 00:00:00 | 00:00:00 | |
| LZ4TU-5 | 2026-09-04 23:48:59 | 44.07647 | 22.62635 | 167° | 64km/h | 11333m | 6.6m/s | -50.3°C | 48.2% | 0hPa | 0V | 00:00:00 | 00:00:00 | 00:00:00 | |
| LZ4TU-5 | 2026-09-04 23:48:53 | 44.07730 | 22.62595 | 147° | 44km/h | 11300m | 6.3m/s | -50.0°C | 46.9% | 0hPa | 0V | 00:00:00 | 00:00:00 | 00:00:00 | |
| LZ4TU-5 | 2026-09-04 23:48:48 | 44.07790 | 22.62561 | 172° | 58km/h | 11268m | 6.6m/s | -49.7°C | 45.8% | 0hPa | 0V | 00:00:00 | 00:00:00 | 00:00:00 | |
| LZ4TU-5 | 2026-09-04 23:47:17 | 44.08848 | 22.62132 | 157° | 42km/h | 10772m | 4.6m/s | -45.0°C | 37.1% | 0hPa | 0V | 00:00:00 | 00:00:00 | 00:00:00 | |
| LZ4TU-5 | 2026-09-04 23:47:12 | 44.08895 | 22.62117 | 179° | 57km/h | 10748m | 4.9m/s | -44.7°C | 37.3% | 0hPa | 0V | 00:00:00 | 00:00:00 | 00:00:00 | |
| LZ4TU-5 | 2026-09-04 23:47:06 | 44.08971 | 22.62079 | 125° | 46km/h | 10716m | 4.9m/s | -44.5°C | 37.7% | 0hPa | 0V | 00:00:00 | 00:00:00 | 00:00:00 | |
| LZ4TU-5 | 2026-09-04 23:47:01 | 44.09026 | 22.62057 | 186° | 62km/h | 10683m | 3.7m/s | -44.3°C | 37.9% | 0hPa | 0V | 00:00:00 | 00:00:00 | 00:00:00 | |
| LZ4TU-5 | 2026-09-04 23:45:31 | 44.09910 | 22.61340 | 152° | 64km/h | 10153m | 7.0m/s | -40.4°C | 50.3% | 0hPa | 0V | 00:00:00 | 00:00:00 | 00:00:00 | |
| LZ4TU-5 | 2026-09-04 23:45:27 | 44.09954 | 22.61301 | 153° | 40km/h | 10127m | 6.4m/s | -40.1°C | 47.1% | 0hPa | 0V | 00:00:00 | 00:00:00 | 00:00:00 | |
| LZ4TU-5 | 2026-09-04 23:45:20 | 44.10046 | 22.61236 | 146° | 75km/h | 10088m | 2.2m/s | -39.8°C | 40.4% | 0hPa | 0V | 00:00:00 | 00:00:00 | 00:00:00 | |
| LZ4TU-5 | 2026-09-04 23:45:17 | 44.10095 | 22.61176 | 142° | 49km/h | 10065m | 4.6m/s | -39.5°C | 34.5% | 0hPa | 0V | 00:00:00 | 00:00:00 | 00:00:00 | |
| LZ4TU-5 | 2026-09-04 23:43:42 | 44.11195 | 22.60317 | 152° | 55km/h | 9567m | 3.9m/s | -35.4°C | 53.4% | 0hPa | 0V | 00:00:00 | 00:00:00 | 00:00:00 | |
| LZ4TU-5 | 2026-09-04 23:43:37 | 44.11246 | 22.60281 | 162° | 51km/h | 9541m | 7.6m/s | -35.3°C | 52.6% | 0hPa | 0V | 00:00:00 | 00:00:00 | 00:00:00 | |
| LZ4TU-5 | 2026-09-04 23:43:32 | 44.11318 | 22.60238 | 141° | 58km/h | 9510m | 5.4m/s | -35.1°C | 52.2% | 0hPa | 0V | 00:00:00 | 00:00:00 | 00:00:00 | |
| LZ4TU-5 | 2026-09-04 23:43:28 | 44.11351 | 22.60199 | 154° | 35km/h | 9487m | 5.1m/s | -34.9°C | 51.3% | 0hPa | 0V | 00:00:00 | 00:00:00 | 00:00:00 | |
| LZ4TU-5 | 2026-09-04 23:43:23 | 44.11414 | 22.60166 | 146° | 62km/h | 9463m | 5.4m/s | -34.6°C | 50.1% | 0hPa | 0V | 00:00:00 | 00:00:00 | 00:00:00 | |
| LZ4TU-5 | 2026-09-04 23:43:18 | 44.11475 | 22.60075 | 138° | 62km/h | 9434m | 5.7m/s | -34.4°C | 49.1% | 0hPa | 0V | 00:00:00 | 00:00:00 | 00:00:00 | |
| LZ4TU-5 | 2026-09-04 23:41:55 | 44.12239 | 22.59054 | 155° | 33km/h | 8979m | 5.7m/s | -30.8°C | 37.9% | 0hPa | 0V | 00:00:00 | 00:00:00 | 00:00:00 | |
| LZ4TU-5 | 2026-09-04 23:41:50 | 44.12288 | 22.59000 | 137° | 73km/h | 8955m | 4.8m/s | -30.6°C | 37.4% | 0hPa | 0V | 00:00:00 | 00:00:00 | 00:00:00 | |
| LZ4TU-5 | 2026-09-04 23:40:28 | 44.13024 | 22.58115 | 136° | 38km/h | 8529m | 6.5m/s | -27.1°C | 36.6% | 0hPa | 0V | 00:00:00 | 00:00:00 | 00:00:00 | |
| LZ4TU-5 | 2026-09-04 23:40:23 | 44.13071 | 22.58069 | 166° | 51km/h | 8500m | 3.8m/s | -26.8°C | 36.2% | 0hPa | 0V | 00:00:00 | 00:00:00 | 00:00:00 | |
| LZ4TU-5 | 2026-09-04 23:39:01 | 44.13885 | 22.57372 | 173° | 31km/h | 8086m | 2.4m/s | -23.7°C | 19.0% | 0hPa | 0V | 00:00:00 | 00:00:00 | 00:00:00 | |
| LZ4TU-5 | 2026-09-04 23:38:56 | 44.13934 | 22.57326 | 154° | 64km/h | 8057m | 6.4m/s | -23.5°C | 19.2% | 0hPa | 0V | 00:00:00 | 00:00:00 | 00:00:00 | |
| LZ4TU-5 | 2026-09-04 23:37:42 | 44.14679 | 22.56874 | 152° | 46km/h | 7659m | 7.0m/s | -21.0°C | 19.1% | 0hPa | 0V | 00:00:00 | 00:00:00 | 00:00:00 | |
| LZ4TU-5 | 2026-09-04 23:37:37 | 44.14716 | 22.56846 | 168° | 33km/h | 7630m | 5.5m/s | -20.9°C | 0% | 0hPa | 0V | 00:00:00 | 00:00:00 | 00:00:00 | |
| LZ4TU-5 | 2026-09-04 23:36:18 | 44.15316 | 22.56400 | 160° | 35km/h | 7194m | 5.1m/s | -17.5°C | 24.1% | 0hPa | 0V | 00:00:00 | 00:00:00 | 00:00:00 | |
| LZ4TU-5 | 2026-09-04 23:36:13 | 44.15362 | 22.56339 | 142° | 49km/h | 7166m | 4.7m/s | -17.3°C | 24.7% | 0hPa | 0V | 00:00:00 | 00:00:00 | 00:00:00 | |
| LZ4TU-5 | 2026-09-04 23:34:58 | 44.15835 | 22.55835 | 125° | 35km/h | 6695m | 6.5m/s | -13.8°C | 35.4% | 0hPa | 0V | 00:00:00 | 00:00:00 | 00:00:00 | |
| LZ4TU-5 | 2026-09-04 23:34:53 | 44.15871 | 22.55786 | 119° | 31km/h | 6658m | 8.3m/s | -13.5°C | 35.6% | 0hPa | 0V | 00:00:00 | 00:00:00 | 00:00:00 | |
| LZ4TU-5 | 2026-09-04 23:33:36 | 44.16351 | 22.55339 | 106° | 35km/h | 6153m | 4.6m/s | -9.8°C | 9.7% | 0hPa | 0V | 00:00:00 | 00:00:00 | 00:00:00 | |
| LZ4TU-5 | 2026-09-04 23:33:31 | 44.16373 | 22.55301 | 194° | 33km/h | 6119m | 9.1m/s | -9.6°C | 9.6% | 0hPa | 0V | 00:00:00 | 00:00:00 | 00:00:00 | |
| LZ4TU-5 | 2026-09-04 23:32:11 | 44.17132 | 22.55057 | 154° | 38km/h | 5588m | 6.7m/s | -7.8°C | 16.5% | 0hPa | 0V | 00:00:00 | 00:00:00 | 00:00:00 | |
| LZ4TU-5 | 2026-09-04 23:32:06 | 44.17171 | 22.55036 | 205° | 31km/h | 5558m | 6.5m/s | -7.7°C | 16.6% | 0hPa | 0V | 00:00:00 | 00:00:00 | 00:00:00 | |
| LZ4TU-5 | 2026-09-04 23:30:49 | 44.18021 | 22.55277 | 175° | 58km/h | 5153m | 3.8m/s | -5.6°C | 22.1% | 0hPa | 0V | 00:00:00 | 00:00:00 | 00:00:00 | |
| LZ4TU-5 | 2026-09-04 23:30:44 | 44.18097 | 22.55273 | 195° | 51km/h | 5130m | 6.0m/s | -5.6°C | 25.9% | 0hPa | 0V | 00:00:00 | 00:00:00 | 00:00:00 | |
| LZ4TU-5 | 2026-09-04 23:29:33 | 44.18938 | 22.55732 | 189° | 38km/h | 4801m | 5.0m/s | -4.0°C | 42.6% | 0hPa | 0V | 00:00:00 | 00:00:00 | 00:00:00 | |
| LZ4TU-5 | 2026-09-04 23:29:28 | 44.19002 | 22.55742 | 209° | 55km/h | 4778m | 5.9m/s | -3.9°C | 44.2% | 0hPa | 0V | 00:00:00 | 00:00:00 | 00:00:00 | |
| LZ4TU-5 | 2026-09-04 23:28:18 | 44.19838 | 22.55947 | 222° | 40km/h | 4475m | 6.2m/s | -1.6°C | 53.2% | 0hPa | 0V | 00:00:00 | 00:00:00 | 00:00:00 | |
| LZ4TU-5 | 2026-09-04 23:28:13 | 44.19890 | 22.55955 | 180° | 64km/h | 4449m | 4.0m/s | -1.4°C | 53.5% | 0hPa | 0V | 00:00:00 | 00:00:00 | 00:00:00 | |
| LZ4TU-5 | 2026-09-04 23:27:03 | 44.20692 | 22.56065 | 199° | 33km/h | 4102m | 3.7m/s | 1.7°C | 49.6% | 0hPa | 0V | 00:00:00 | 00:00:00 | 00:00:00 | |
| LZ4TU-5 | 2026-09-04 23:26:59 | 44.20742 | 22.56064 | 182° | 66km/h | 4080m | 5.2m/s | 1.8°C | 0% | 0hPa | 0V | 00:00:00 | 00:00:00 | 00:00:00 | |
| LZ4TU-5 | 2026-09-04 23:25:52 | 44.21398 | 22.56154 | 162° | 26km/h | 3690m | 5.9m/s | 3.6°C | 51.3% | 0hPa | 0V | 00:00:00 | 00:00:00 | 00:00:00 | |
| LZ4TU-5 | 2026-09-04 23:25:47 | 44.21449 | 22.56141 | 193° | 31km/h | 3659m | 6.2m/s | 3.9°C | 50.6% | 0hPa | 0V | 00:00:00 | 00:00:00 | 00:00:00 | |
| LZ4TU-5 | 2026-09-04 23:24:29 | 44.22008 | 22.56057 | 196° | 11km/h | 3181m | 7.2m/s | 7.9°C | 34.7% | 0hPa | 0V | 00:00:00 | 00:00:00 | 00:00:00 | |
| LZ4TU-5 | 2026-09-04 23:24:24 | 44.22034 | 22.56029 | 148° | 35km/h | 3153m | 5.5m/s | 8.1°C | 0% | 0hPa | 0V | 00:00:00 | 00:00:00 | 00:00:00 | |
| LZ4TU-5 | 2026-09-04 23:24:19 | 44.22064 | 22.56044 | 224° | 31km/h | 3121m | 6.3m/s | 8.4°C | 34.5% | 0hPa | 0V | 00:00:00 | 00:00:00 | 00:00:00 | |
| LZ4TU-5 | 2026-09-04 23:23:16 | 44.22423 | 22.56054 | 193° | 18km/h | 2737m | 6.0m/s | 11.2°C | 33.0% | 0hPa | 0V | 00:00:00 | 00:00:00 | 00:00:00 | |
| LZ4TU-5 | 2026-09-04 23:23:11 | 44.22427 | 22.56042 | 90° | 29km/h | 2711m | 5.1m/s | 11.4°C | 28.5% | 0hPa | 0V | 00:00:00 | 00:00:00 | 00:00:00 | |
| LZ4TU-5 | 2026-09-04 23:22:08 | 44.22647 | 22.55727 | 107° | 20km/h | 2365m | 6.8m/s | 13.9°C | 14.6% | 0hPa | 0V | 00:00:00 | 00:00:00 | 00:00:00 | |
| LZ4TU-5 | 2026-09-04 23:22:03 | 44.22670 | 22.55712 | 177° | 9km/h | 2337m | 6.1m/s | 14.2°C | 13.5% | 0hPa | 0V | 00:00:00 | 00:00:00 | 00:00:00 | |
| LZ4TU-5 | 2026-09-04 23:21:00 | 44.23038 | 22.55577 | 171° | 24km/h | 1996m | 5.3m/s | 12.0°C | 53.5% | 0hPa | 0V | 00:00:00 | 00:00:00 | 00:00:00 | |
| LZ4TU-5 | 2026-09-04 23:20:55 | 44.23056 | 22.55556 | 144° | 27km/h | 1970m | 4.7m/s | 12.0°C | 0% | 0hPa | 0V | 00:00:00 | 00:00:00 | 00:00:00 | |
| LZ4TU-5 | 2026-09-04 23:19:52 | 44.23291 | 22.55204 | 128° | 16km/h | 1630m | 5.8m/s | 14.6°C | 53.1% | 0hPa | 0V | 00:00:00 | 00:00:00 | 00:00:00 | |
| LZ4TU-5 | 2026-09-04 23:19:47 | 44.23321 | 22.55174 | 148° | 18km/h | 1604m | 5.0m/s | 14.8°C | 52.5% | 0hPa | 0V | 00:00:00 | 00:00:00 | 00:00:00 | |
| LZ4TU-5 | 2026-09-04 23:18:44 | 44.23512 | 22.54807 | 154° | 29km/h | 1267m | 5.4m/s | 18.0°C | 45.5% | 0hPa | 0V | 00:00:00 | 00:00:00 | 00:00:00 | |
| LZ4TU-5 | 2026-09-04 23:18:41 | 44.23521 | 22.54789 | 81° | 13km/h | 1244m | 5.4m/s | 18.2°C | 45.2% | 0hPa | 0V | 00:00:00 | 00:00:00 | 00:00:00 | |
| LZ4TU-5 | 2026-09-04 23:18:33 | 44.23540 | 22.54745 | 144° | 15km/h | 1205m | 5.1m/s | 18.6°C | 0% | 0hPa | 0V | 00:00:00 | 00:00:00 | 00:00:00 |